Regional Weather Roundup
Issued by NWS Wakefield, VA

Home | Current Version | Previous Version | Text Only | Print | Product List | Glossary Off
Versions: 1 2 3 4 5 6 7 8 9 10 11 12 13 14 15 16 17 18 19 20 21 22 23 24 25 26 27 28

000
ASUS41 KAKQ 270314
RWRAKQ

REGIONAL WEATHER ROUNDUP
NATIONAL WEATHER SERVICE WAKEFIELD VA
1000 PM EST SUN FEB 26 2017

Note: "fair" indicates few or no clouds below 12,000 feet with no
significant weather and/or obstructions to visibility. * = Denotes
station may not report precipitation (e.g., rain,snow,etc.),
thunder or fog.

VAZ042-051-052>054-056-270400-
NORTHERN VIRGINIA

CITY           SKY/WX    TMP DP  RH WIND       PRES   REMARKS
WASH NATIONAL  FAIR      42  23  46 S5        30.30R
DULLES         FAIR      30  22  72 CALM      30.28R
FORT BELVOIR   FAIR      33  23  66 CALM      30.29R
QUANTICO       FAIR      37  30  75 NW6       30.30R
FREDERICKSBRG* FAIR      35  26  70 CALM      30.29R
STAFFORD*      FAIR      32  24  72 CALM      30.33S
WARRENTON      FAIR      28  22  79 CALM      30.27S
CULPEPER*      FAIR      32  22  66 CALM      30.29S
MANASSAS*      FAIR      28  25  88 CALM      30.29R
LEESBURG*      FAIR      32  27  80 MISG      30.29S
WINCHESTER     FAIR      32  14  47 CALM      30.26S
FRONT ROYAL*   FAIR      32  16  51 CALM      30.25S
LURAY*         NOT AVBL
$$

VAZ048-049-060>072-079>083-270400-
CENTRAL AND SOUTH CENTRAL VIRGINIA

CITY           SKY/WX    TMP DP  RH WIND       PRES   REMARKS
RICHMOND       FAIR      38  26  62 CALM      30.29R
CHESTERFIELD*  FAIR      36  12  38 CALM      30.30R
PETERSBURG*    FAIR      28  26  89 CALM      30.31R
HANOVER        FAIR      32  25  75 CALM      30.29R
TAPPAHANNOCK*  FAIR      38  16  42 CALM      30.31R
QUINTON*       NOT AVBL
CHARLOTTSVILLE FAIR      44  11  26 CALM      30.27R
GORDONSVILLE*  NOT AVBL
ORANGE*        FAIR      32  25  74 CALM      30.29R
LOUISA*        FAIR      34  21  60 CALM      30.26S
BUMPASS*       NOT AVBL
FARMVILLE*     FAIR      38  23  54 SW3       30.28R
CREWE*         NOT AVBL
FORT PICKETT*  NOT AVBL
CHASE CITY*    NOT AVBL
CLARKSVILLE*   NOT AVBL
SOUTH HILL*    FAIR      32  28  84 CALM      30.35R
LAWRENCEVILLE* NOT AVBL
EMPORIA*       FAIR      30  28  93 CALM      30.32R
$$

VAZ088>098-270400-
SOUTHEAST VIRGINIA

CITY           SKY/WX    TMP DP  RH WIND       PRES   REMARKS
NORFOLK        FAIR      42  32  67 SE5       30.32R
VIRGINIA BEACH FAIR      40  30  67 SE5       30.32R
NORFOLK NAVAL  FAIR      41  31  67 SE6       30.33R
WEST POINT*    FAIR      36  28  72 SE3       30.33R
SALUDA*        NOT AVBL
NEWPORT NEWS   FAIR      36  31  82 CALM      30.32R
LANGLEY AFB    FAIR      43  33  69 S3        30.31R
FORT EUSTIS    FAIR      39  31  73 SE5       30.29R
WILLIAMSBURG*  FAIR      43  36  75 CALM      30.32R
HR EXEC AP*    NOT AVBL
FRANKLIN*      FAIR      34  28  80 CALM      30.32R
US460-WAKEFLD  FAIR      33  29  85 CALM      30.31R
$$

VAZ020-022-025-037-045-270400-
WEST CENTRAL AND SOUTHWEST VIRGINIA

CITY           SKY/WX    TMP DP  RH WIND       PRES   REMARKS
STAUNTON*      FAIR      27  16  64 CALM      30.28R
WAYNESBORO*    NOT AVBL
HOT SPRINGS VA FAIR      32   1  27 CALM      30.19R
LYNCHBURG      FAIR      32  18  56 CALM      30.29R
DANVILLE       FAIR      34  25  69 CALM      30.29R
SOUTH BOSTON*  NOT AVBL
MARTINSVILLE   FAIR      30  20  67 CALM      30.30R
ROANOKE        FAIR      36  17  46 CALM      30.29R
BLACKSBURG     FAIR      31  19  60 CALM      30.28R
DUBLIN*        FAIR      34  18  51 CALM      30.26R
MARION*        FAIR      31  19  61 CALM      30.27R
HILLSVILLE*    FAIR      36  14  40 CALM      30.23R
RICHLANDS*     FAIR      37  14  39 CALM      30.21S
WISE*          FAIR      37  14  38 CALM      30.22R
ABINGDON*      FAIR      35  21  57 CALM      30.24R
$$

MDZ021>025-VAZ099-100-270400-
SOUTHERN MARYLAND AND THE DELMARVA PENINSULA

CITY           SKY/WX    TMP DP  RH WIND       PRES   REMARKS
PATUXENT RIVER FAIR      35  30  82 S6        30.30R
BAY BRIDGE APT FAIR      36  25  64 CALM      30.30R
LEONARDTOWN    FAIR      36  28  75 SE3       30.32R
DOVER          FAIR      35  26  70 S3        30.28R
GEORGETOWN     FAIR      30  23  75 CALM      30.31R
EASTON         FAIR      35  24  64 CALM      30.33R
CAMBRIDGE      CLEAR     30  25  80 CALM      30.31R
SALISBURY      FAIR      29  24  82 CALM      30.31R
OCEAN CITY     FAIR      30  25  81 CALM      30.31R
WALLOPS ISLAND FAIR      34  27  75 CALM      30.32R
ACCOMACK*      FAIR      33  28  79 S5        30.32R
$$

NCZ012>017-030>032-270400-
NORTH CENTRAL AND EASTERN NORTH CAROLINA

CITY           SKY/WX    TMP DP  RH WIND       PRES   REMARKS
ROANOKE RAPIDS FAIR      34  30  86 CALM      30.31R
RALEIGH        FAIR      41  23  48 CALM      30.30R
ELIZABETH CITY FAIR      44  38  79 CALM      30.33R
AHOSKIE*         N/A     34  28  78 CALM      30.32S
EDENTON*       FAIR      40  31  71 CALM      30.32S
CURRITUCK*     FAIR      40  36  86 CALM      30.33S
KILL DEVIL HLS NOT AVBL
MANTEO         FAIR      42  37  81 E3        30.33S
CAPE HATTERAS  FAIR      50  35  56 NE3       30.32R
TARBORO*       NOT AVBL
GOLDSBORO      FAIR      39  25  57 CALM      30.29R
WASHINGTON     FAIR      40  30  67 CALM      30.32R
GREENVILLE     FAIR      39  30  70 CALM      30.32R
NEW BERN       FAIR      38  31  76 CALM      30.33R
WILMINGTON     FAIR      40  35  83 CALM      30.31R
$$

VAZ048-270400-
ELSEWHERE

CITY           SKY/WX    TMP DP  RH WIND       PRES   REMARKS
HARRISBURG PA  FAIR      30  20  66 E3        30.26R
BALTIMORE      FAIR      31  22  69 W3        30.28R
ANNAPOLIS      FAIR      38  30  73 CALM      30.29R
ANDREWS AFB    FAIR      32  23  68 S3        30.28R
PHILADELPHIA   FAIR      36  18  48 W5        30.29R
HENDERSON NC   FAIR      37  19  47 CALM      30.29R
GREENSBORO     FAIR      42  21  43 CALM      30.26R
ROCKY MOUNT    FAIR      35  30  82 CALM      30.30S
$$

VAZ100-270400-
MARINE

STATION/POSITION TIME  TEMP    WIND        PRES    WAVE   SWELL
                       AIR SEA DIR/SP/G            HT/PER HT/PER
                 (UTC) (F)     (DEG/KT/KT) (MB)    (FT/S) (FT/S)
CAPE MAY NJ      0242   42 45  300/  6/ 11 1025.3R
LEWES DE         0242   39 45  260/  5/  6 1025.9R
OCEAN-CITY-INLET 0242   39 44  270/  2/  2 1026.7R
WACHAPREAGUE VA  0242   39 53  230/  3/  3 1026.6R
THOMAS POINT MD  0300   43 44   CALM  /  1   N/A
GOOSES REEF MD   0300   44 45  180/  4/  6 1026.7
COVE POINT MD    0242   42     110/  4/  6 1026.7R
SOLOMONS ISLAND  0242   41 45  160/  2/  3   N/A
BISHOPS HEAD MD  0242   45 48  130/  7/  8 1026.5R
PINEY POINT MD   0248          170/  8/  9   N/A
POTOMAC MD       0300   43 44  180/  8/ 10 1025.4
CAMBRIDGE MD     0242   37 47  190/  3/  5 1025.4R
LEWISETTA VA     0242   42 48  200/  8/  8 1025.8R
RAPPAHANNOCK LGT 0248          130/  8/  9 1027.0R
YORK RVR RNG VA  0242   46     170/ 12/ 13 1025.7R
YORKTOWN VA      0242   44 50  160/  5/  6 1026.1R
JAMESTOWN VA     0300   46 54  130/  8/ 10   N/A
DOMINION TERM VA 0242   45     150/ 11/ 12 1026.6R
KIPTOPEKE VA     0248      50  160/  7/  8   N/A
CHES BAY BRIDGE  0236   44 48  160/  9/ 11 1026.7R
CAPE HENRY VA    0236   43     150/  7/  9   N/A
WILLOUBY STN VA  0236   44     150/  9/ 10 1027.5R
S CRANEY ISL VA  0236   45     160/  8/  9 1026.5R
CAPE HENRY BUOY  0242      48                N/A     3/10   2/11
OFFSHORE WE BUOY 0251      48                N/A     3/ 9   2/11
64NM E OF VA BCH 0250   44 51   60/  4/  6 1027.4R   4/ 9   3/ 9
DUCK PIER NC     0236   46 49  110/  7/  9 1026.5R
44100 DUCK FRF   0235      49                N/A     3/ 9   2/11
44056 DUCK FRF   0230      49                N/A     3/10   2/11
OREGON INLET NC  0236   46 57   50/  5/  6 1026.7R
HATTERAS NC      0236   54 62  320/  8/ 10 1026.2R
DIAMOND SHLS NC  0250   56 72  310/ 10/ 14 1026.6R   4/ 9   3/ 9
CAPE LOOKOUT NC  0300   56     320/  7/  9 1026.2R
$$




USA.gov is the U.S. government's official web portal to all federal, state and local government web resources and services.